TimeCST,TemperatureF,Dew PointF,Humidity,Sea Level PressureIn,VisibilityMPH,Wind Direction,Wind SpeedMPH,Gust SpeedMPH,PrecipitationIn,Events,Conditions,WindDirDegrees,DateUTC
12:15 AM,35.6,24.8,65,30.33,10.0,Calm,Calm,-,0.00,,Clear,0,2012-12-13 06:15:00
12:55 AM,33.8,26.6,75,30.34,10.0,Calm,Calm,-,0.00,,Clear,0,2012-12-13 06:55:00
1:15 AM,32.0,26.6,80,30.34,8.0,Calm,Calm,-,0.00,,Clear,0,2012-12-13 07:15:00
1:35 AM,32.0,28.4,87,30.34,10.0,Calm,Calm,-,0.00,,Clear,0,2012-12-13 07:35:00
1:55 AM,30.2,30.2,100,30.35,8.0,Calm,Calm,-,0.00,,Clear,0,2012-12-13 07:55:00
2:15 AM,32.0,26.6,80,30.36,10.0,Calm,Calm,-,0.00,,Clear,0,2012-12-13 08:15:00
2:35 AM,32.0,26.6,80,30.36,10.0,Calm,Calm,-,0.00,,Clear,0,2012-12-13 08:35:00
2:55 AM,30.2,26.6,86,30.36,10.0,Calm,Calm,-,0.00,,Clear,0,2012-12-13 08:55:00
3:15 AM,30.2,26.6,86,30.37,10.0,Calm,Calm,-,0.00,,Clear,0,2012-12-13 09:15:00
3:35 AM,30.2,28.4,93,30.36,10.0,Calm,Calm,-,0.00,,Clear,0,2012-12-13 09:35:00
3:55 AM,30.2,28.4,93,30.36,8.0,Calm,Calm,-,0.00,,Clear,0,2012-12-13 09:55:00
4:15 AM,28.4,26.6,93,30.36,10.0,Calm,Calm,-,0.00,,Clear,0,2012-12-13 10:15:00
4:35 AM,30.2,26.6,86,30.35,9.0,Calm,Calm,-,0.00,,Clear,0,2012-12-13 10:35:00
4:55 AM,28.4,26.6,93,30.35,10.0,Calm,Calm,-,0.00,,Clear,0,2012-12-13 10:55:00
5:15 AM,28.4,26.6,93,30.36,10.0,Calm,Calm,-,0.00,,Clear,0,2012-12-13 11:15:00
5:35 AM,28.4,26.6,93,30.36,10.0,Calm,Calm,-,0.00,,Clear,0,2012-12-13 11:35:00
5:55 AM,30.2,26.6,86,30.36,10.0,Calm,Calm,-,0.00,,Clear,0,2012-12-13 11:55:00
6:50 AM,28.4,26.6,93,30.38,10.0,Calm,Calm,-,N/A,,Clear,0,2012-12-13 12:50:00
7:50 AM,30.2,28.4,93,30.39,10.0,Calm,Calm,-,N/A,,Clear,0,2012-12-13 13:50:00
8:50 AM,35.6,30.2,81,30.39,10.0,Calm,Calm,-,N/A,,Clear,0,2012-12-13 14:50:00
9:55 AM,44.6,30.2,57,30.39,10.0,Calm,Calm,-,N/A,,Clear,0,2012-12-13 15:55:00
10:50 AM,48.2,28.4,46,30.37,10.0,Calm,Calm,-,N/A,,Clear,0,2012-12-13 16:50:00
11:55 AM,51.8,26.6,38,30.36,10.0,Calm,Calm,-,N/A,,Clear,0,2012-12-13 17:55:00
12:50 PM,55.4,24.8,31,30.33,10.0,Calm,Calm,-,N/A,,Clear,0,2012-12-13 18:50:00
1:50 PM,55.4,24.8,31,30.30,10.0,Calm,Calm,-,N/A,,Clear,0,2012-12-13 19:50:00
2:50 PM,57.2,23.0,27,30.28,10.0,Calm,Calm,-,N/A,,Clear,0,2012-12-13 20:50:00
6:50 PM,44.6,26.6,49,30.30,10.0,Calm,Calm,-,N/A,,Clear,0,2012-12-14 00:50:00
8:15 PM,42.8,28.4,57,30.29,9.0,Calm,Calm,-,0.00,,Clear,0,2012-12-14 02:15:00
8:35 PM,39.2,28.4,65,30.29,10.0,Calm,Calm,-,0.00,,Clear,0,2012-12-14 02:35:00
8:55 PM,39.2,28.4,65,30.29,10.0,Calm,Calm,-,0.00,,Clear,0,2012-12-14 02:55:00
9:15 PM,37.4,28.4,70,30.29,9.0,Calm,Calm,-,0.00,,Clear,0,2012-12-14 03:15:00
9:35 PM,35.6,30.2,81,30.30,10.0,Calm,Calm,-,0.00,,Clear,0,2012-12-14 03:35:00
9:55 PM,37.4,30.2,75,30.30,9.0,Calm,Calm,-,0.00,,Clear,0,2012-12-14 03:55:00
10:15 PM,37.4,28.4,70,30.31,10.0,Calm,Calm,-,0.00,,Clear,0,2012-12-14 04:15:00
10:35 PM,37.4,28.4,70,30.30,10.0,Calm,Calm,-,0.00,,Clear,0,2012-12-14 04:35:00
10:55 PM,37.4,28.4,70,30.30,10.0,Calm,Calm,-,0.00,,Clear,0,2012-12-14 04:55:00
11:15 PM,32.0,30.2,93,30.30,10.0,Calm,Calm,-,0.00,,Clear,0,2012-12-14 05:15:00
11:35 PM,33.8,28.4,81,30.30,10.0,Calm,Calm,-,0.00,,Clear,0,2012-12-14 05:35:00
11:55 PM,33.8,28.4,81,30.30,8.0,ESE,3.5,-,0.00,,Clear,120,2012-12-14 05:55:00